Date String (YYYY-MM-DD hh:mm:ss) UTC,Instrument flags,Ambient pressure (hPa),Sample flow (lpm),Bypass flow (lpm),Sample temperature (°C),Ambient temperature (°C),ASC tube jacket temperature (°C),LED temperature (°C),Box temperature (°C),Sample RH (%),Span deviation,Mass concentration (μg/m³),Mass concentration (μg/m³),Mass concentration (μg/m³)
DateTimeUTC,F1_M11,P_M11,Q1_M11,Q2_M11,T1_M11,T2_M11,T3_M11,T4_M11,T5_M11,U1_M11,ZSPAN_M11,X0_M11,X2_M11,X1_M11
2022-10-01 01:00:00,,0826.2,5.00,0.00,29.7,27.8,00.0,38.5,31.5,27.1,0000.0,0004.87,0002.02,0001.33
2022-10-01 01:01:00,,0826.2,5.00,0.00,29.7,28.0,00.0,38.5,31.5,26.8,0000.0,0005.82,0002.07,0001.35
2022-10-01 01:02:00,,0826.2,4.99,0.00,29.7,28.1,00.0,38.5,31.5,26.6,0000.0,0006.08,0002.14,0001.38
2022-10-01 01:03:00,,0826.3,5.00,0.00,29.7,28.2,00.0,38.5,31.6,26.8,0000.0,0005.89,0002.08,0001.38
2022-10-01 01:04:00,,0826.3,5.01,0.00,29.7,28.3,00.0,38.5,31.6,26.7,0000.0,0005.83,0002.06,0001.38
2022-10-01 01:05:00,,0826.3,5.00,0.00,29.7,28.4,00.0,38.5,31.6,26.6,0000.0,0005.78,0002.03,0001.40
2022-10-01 01:06:00,,0826.3,4.99,0.00,29.8,28.4,00.0,38.5,31.6,26.6,0000.0,0005.81,0002.03,0001.40
2022-10-01 01:07:00,,0826.3,5.01,0.00,29.8,28.5,00.0,38.5,31.6,26.5,0000.0,0005.38,0001.98,0001.42
2022-10-01 01:08:00,,0826.4,4.99,0.00,29.8,28.5,00.0,38.5,31.7,26.4,0000.0,0004.43,0002.03,0001.44
2022-10-01 01:09:00,,0826.4,5.00,0.00,29.8,28.5,00.0,38.5,31.7,26.4,0000.0,0004.65,0002.07,0001.44
2022-10-01 01:10:00,,0826.4,5.01,0.00,29.8,28.6,00.0,38.5,31.7,26.3,0000.0,0004.69,0002.10,0001.45
2022-10-01 01:11:00,,0826.5,5.00,0.00,29.8,28.6,00.0,38.5,31.8,26.3,0000.0,0004.70,0002.14,0001.48
2022-10-01 01:12:00,,0826.5,4.99,0.00,29.9,28.6,00.0,38.5,31.7,26.3,0000.0,0003.74,0002.09,0001.47
2022-10-01 01:13:00,,0826.5,5.01,0.00,29.9,28.6,00.0,38.5,31.7,26.3,0000.0,0003.35,0002.05,0001.48
2022-10-01 01:14:00,,0826.5,5.01,0.00,29.9,28.7,00.0,38.6,31.8,26.3,0000.0,0003.36,0002.08,0001.50
2022-10-01 01:15:00,,0826.5,4.98,0.00,29.9,28.7,00.0,38.6,31.8,26.3,0000.0,0003.43,0002.09,0001.52
2022-10-01 01:16:00,,0826.5,5.01,0.00,29.9,28.7,00.0,38.6,31.8,26.3,0000.0,0003.60,0002.12,0001.51
2022-10-01 01:17:00,,0826.5,4.99,0.00,29.9,28.7,00.0,38.6,31.9,26.3,0000.0,0003.81,0002.21,0001.51
2022-10-01 01:18:00,,0826.5,4.99,0.00,30.0,28.8,00.0,38.6,31.9,26.2,0000.0,0003.90,0002.26,0001.50
2022-10-01 01:19:00,,0826.5,5.01,0.00,30.0,28.8,00.0,38.7,31.9,26.2,0000.0,0003.91,0002.23,0001.49
2022-10-01 01:20:00,,0826.5,5.00,0.00,30.0,28.8,00.0,38.7,31.9,26.2,0000.0,0003.68,0002.15,0001.48
2022-10-01 01:21:00,,0826.5,4.99,0.00,30.0,28.8,00.0,38.7,31.9,26.1,0000.0,0003.72,0002.18,0001.47
2022-10-01 01:22:00,,0826.5,5.00,0.00,30.0,28.8,00.0,38.7,31.9,26.0,0000.0,0004.54,0002.18,0001.47
2022-10-01 01:23:00,,0826.5,5.01,0.00,30.0,28.8,00.0,38.7,31.9,26.1,0000.0,0005.21,0002.20,0001.47
2022-10-01 01:24:00,,0826.5,4.99,0.00,30.0,28.8,00.0,38.7,31.9,26.2,0000.0,0005.34,0002.23,0001.47
2022-10-01 01:25:00,,0826.5,5.00,0.00,30.0,28.7,00.0,38.7,31.9,26.2,0000.0,0005.52,0002.25,0001.48
2022-10-01 01:26:00,,0826.5,5.00,0.00,30.1,28.7,00.0,38.7,32.0,26.2,0000.0,0005.63,0002.33,0001.49
2022-10-01 01:27:00,,0826.5,4.99,0.00,30.1,28.7,00.0,38.8,32.0,26.2,0000.0,0005.62,0002.36,0001.50
2022-10-01 01:28:00,,0826.5,5.00,0.00,30.1,28.8,00.0,38.8,32.0,26.2,0000.0,0005.59,0002.35,0001.50
2022-10-01 01:29:00,,0826.5,5.01,0.00,30.1,28.8,00.0,38.8,32.0,26.2,0000.0,0005.56,0002.34,0001.52
2022-10-01 01:30:00,,0826.5,5.00,0.00,30.1,28.8,00.0,38.8,32.0,26.2,0000.0,0005.46,0002.34,0001.54
2022-10-01 01:31:00,,0826.5,5.00,0.00,30.1,28.8,00.0,38.8,32.0,26.3,0000.0,0005.47,0002.37,0001.56
2022-10-01 01:32:00,,0826.5,4.99,0.00,30.1,28.9,00.0,38.8,32.0,26.2,0000.0,0005.38,0002.33,0001.58
2022-10-01 01:33:00,,0826.5,5.01,0.00,30.1,28.9,00.0,38.8,32.0,26.3,0000.0,0004.34,0002.28,0001.59
2022-10-01 01:34:00,,0826.5,5.00,0.00,30.1,28.9,00.0,38.8,32.0,26.7,0000.0,0003.88,0002.29,0001.61
2022-10-01 01:35:00,,0826.5,4.99,0.00,30.2,28.9,00.0,38.8,32.0,26.5,0000.0,0003.81,0002.28,0001.62
2022-10-01 01:36:00,,0826.5,5.00,0.00,30.2,28.9,00.0,38.9,32.0,26.4,0000.0,0003.69,0002.27,0001.61
2022-10-01 01:37:00,,0826.5,5.00,0.00,30.2,27.9,00.0,38.9,32.0,26.4,0000.0,0003.62,0002.23,0001.60
2022-10-01 01:38:00,,0826.5,5.01,0.00,30.1,26.7,00.0,38.8,31.9,26.4,0000.0,0003.70,0002.19,0001.60
2022-10-01 01:39:00,,0826.5,5.00,0.00,30.1,26.5,00.0,38.8,31.8,26.5,0000.0,0003.54,0002.16,0001.62
2022-10-01 01:40:00,,0826.5,4.99,0.00,30.0,26.7,00.0,38.7,31.6,26.8,0000.0,0004.23,0002.16,0001.64
2022-10-01 01:41:00,,0826.5,4.99,0.00,29.9,27.0,00.0,38.7,31.5,27.0,0000.0,0004.50,0002.16,0001.65
2022-10-01 01:42:00,,0826.5,5.00,0.00,29.8,27.3,00.0,38.6,31.5,27.3,0000.0,0004.69,0002.15,0001.65
2022-10-01 01:43:00,,0826.5,5.00,0.00,29.8,27.5,00.0,38.6,31.5,28.1,0000.0,0004.93,0002.19,0001.65
2022-10-01 01:44:00,,0826.6,5.00,0.00,29.8,27.7,00.0,38.6,31.5,27.9,0000.0,0004.97,0002.21,0001.65
2022-10-01 01:45:00,,0826.5,5.00,0.00,29.8,27.9,00.0,38.6,31.5,27.6,0000.0,0004.96,0002.25,0001.65
2022-10-01 01:46:00,,0826.5,5.01,0.00,29.8,28.0,00.0,38.6,31.5,27.4,0000.0,0005.09,0002.27,0001.66
2022-10-01 01:47:00,,0826.5,5.01,0.00,29.8,28.2,00.0,38.6,31.6,27.3,0000.0,0005.40,0002.27,0001.68
2022-10-01 01:48:00,,0826.5,4.99,0.00,29.8,28.2,00.0,38.6,31.6,27.3,0000.0,0006.00,0002.32,0001.70
2022-10-01 01:49:00,,0826.5,5.01,0.00,29.8,28.3,00.0,38.5,31.6,27.3,0000.0,0006.02,0002.35,0001.73
2022-10-01 01:50:00,,0826.5,5.01,0.00,29.8,28.3,00.0,38.5,31.6,27.3,0000.0,0006.41,0002.48,0001.75
2022-10-01 01:51:00,,0826.5,4.99,0.00,29.8,28.4,00.0,38.5,31.6,27.3,0000.0,0005.79,0002.50,0001.76
2022-10-01 01:52:00,,0826.5,5.00,0.00,29.8,28.4,00.0,38.5,31.7,27.2,0000.0,0005.72,0002.53,0001.78
2022-10-01 01:53:00,,0826.5,5.01,0.00,29.8,28.4,00.0,38.5,31.7,27.2,0000.0,0005.64,0002.60,0001.81
2022-10-01 01:54:00,,0826.5,4.99,0.00,29.8,28.4,00.0,38.5,31.7,27.2,0000.0,0005.73,0002.60,0001.84
2022-10-01 01:55:00,,0826.5,5.01,0.00,29.8,28.4,00.0,38.5,31.7,27.3,0000.0,0006.61,0002.61,0001.87
2022-10-01 01:56:00,,0826.5,5.00,0.00,29.8,28.4,00.0,38.6,31.7,27.2,0000.0,0006.60,0002.60,0001.88
2022-10-01 01:57:00,,0826.5,5.00,0.00,29.8,28.4,00.0,38.6,31.7,27.2,0000.0,0006.68,0002.63,0001.90
2022-10-01 01:58:00,,0826.5,5.00,0.00,29.8,28.4,00.0,38.6,31.7,27.2,0000.0,0007.58,0002.69,0001.91
2022-10-01 01:59:00,,0826.5,5.01,0.00,29.8,28.4,00.0,38.6,31.7,27.6,0000.0,0007.39,0002.73,0001.93
